#timestamp,LO_Frequency,Hit,StdDev 
1691672415.6,286047001.2,N
1691672435.4,286046999.0,N
1691672455.2,286046998.9,N
1691672475.1,286047000.1,N
1691672476.0,286047000.1,N
1691672495.8,286047000.8,N
1691672515.6,286047001.0,N
1691672535.5,286047001.1,N
1691672555.3,286047000.6,N
1691672575.2,286046998.2,N
1691672595.0,286046999.1,N
1691672595.9,286046999.1,N
1691672615.7,286046998.9,N
1691672635.6,286046998.9,N
1691672655.4,286046999.5,N
1691672675.3,286046999.2,N
1691672695.1,286046999.2,N
1691672715.8,286046999.2,N
1691672735.7,286046999.4,N
1691672755.5,286046999.3,N
1691672775.4,286046998.4,N
1691672795.2,286046999.2,N
1691672815.0,286046999.1,N
1691672815.9,286046999.1,N
1691672835.8,286046998.4,N
1691672855.6,286046998.4,N
1691672875.4,286046999.1,N
1691672895.3,286046998.9,N
1691672915.1,286046997.0,Y
1691672935.9,286046998.8,P
1691672955.7,286046999.4,N
1691672975.6,286046999.0,P
1691672995.4,286046998.8,Y
1691673015.2,286046998.1,P
1691673035.9,286046999.8,N
1691673055.7,286047000.4,N
1691673075.6,286046998.1,N
1691673095.4,286047000.0,N
1691673115.2,286047000.2,N
1691673135.1,286047002.6,N
1691673136.0,286047002.6,N
1691673155.8,286047001.9,N
1691673175.7,286047004.0,N
1691673195.5,286047004.0,N
1691673215.3,286047003.7,N
1691673235.2,286047003.9,N
1691673255.0,286047003.9,N
1691673255.9,286047003.9,N
1691673275.8,286047003.6,N
1691673295.6,286047003.4,N
1691673315.4,286047003.8,N
1691673335.3,286047001.3,N
1691673355.1,286047004.0,N
1691673375.9,286047001.8,N
1691673395.7,286047004.0,N
1691673415.5,286047004.0,N
1691673435.4,286047004.0,N
1691673455.2,286047003.7,N
1691673475.0,286047003.4,N
1691673475.9,286047003.4,N
1691673495.8,286047003.6,N
1691673515.6,286047006.0,Y
1691673535.5,286047001.6,P
1691673555.3,286047002.1,P
1691673575.1,286047002.2,P
1691673595.9,286047002.3,Y
1691673615.7,286046998.1,P
1691673635.6,286046999.3,N
1691673655.4,286046999.0,N
1691673675.2,286046999.1,N
1691673695.1,286046998.0,N
1691673696.0,286046998.0,N
1691673715.8,286046995.8,Y
1691673735.6,286046994.9,P
1691673755.5,286046997.7,N
1691673775.3,286046999.3,N
1691673795.2,286046997.0,N
1691673815.9,286046999.2,N
1691673835.7,286046998.3,N
1691673855.6,286046999.3,N
1691673875.4,286046997.2,N
1691673895.2,286046997.8,N
1691673915.1,286046996.5,N
1691673916.0,286046996.5,N
1691673935.8,286046996.6,N
1691673955.7,286046998.4,N
1691673975.5,286046996.9,N
1691673995.3,286046999.1,N
1691674015.2,286046999.1,N
1691674035.0,286046997.7,N
1691674035.9,286046997.7,N
1691674055.8,286046995.2,Y
1691674075.6,286047001.2,P
1691674095.4,286047000.6,N
1691674115.3,286046998.6,N
1691674135.1,286046998.5,N
1691674136.0,286046998.5,N
1691674155.8,286047000.0,N
1691674175.7,286046998.6,N
1691674195.5,286046998.8,N
1691674215.3,286047001.2,N
1691674235.2,286046998.4,N
1691674255.0,286046998.3,N
1691674255.9,286046998.3,N
1691674275.8,286046998.9,N
1691674295.6,286046998.6,N
1691674315.4,286046999.1,N
1691674335.3,286046999.4,N
1691674355.1,286046998.1,N
1691674375.8,286046998.8,N
1691674395.7,286046999.0,N
1691674415.5,286046996.6,Y
1691674435.4,286046996.7,P
1691674455.2,286046999.3,N
1691674475.0,286046997.3,N
1691674475.9,286046997.3,N
1691674495.8,286046996.5,Y
1691674515.6,286047000.0,P
1691674535.5,286046998.2,N
1691674555.3,286046998.4,N
1691674605.1,286046999.5,E
1691674615.1,286046999.1,N
1691674616.0,286046999.1,P
1691674635.8,286046996.5,P
1691674655.6,286046999.5,N
1691674675.5,286046996.9,N
1691674695.3,286046999.5,N
1691674715.1,286046998.1,N
1691674735.9,286047000.8,N
1691674755.7,286047000.8,N
1691674775.6,286047000.7,N
1691674795.4,286047002.3,N
1691674815.2,286047000.2,N
1691674835.1,286047000.7,N
1691674836.0,286047000.7,N
1691674855.8,286047002.7,N
1691674875.6,286047001.1,N
1691674895.5,286046998.3,N
1691674915.3,286047000.7,N
1691674935.2,286047000.5,N
1691674955.9,286047001.1,N
1691674975.7,286047001.2,N
1691674995.6,286046998.1,N
1691675015.4,286046999.6,N
1691675035.2,286046999.6,N
1691675055.1,286046997.0,N
1691675056.0,286046997.0,N
1691675075.8,286046999.5,N
1691675095.7,286046998.7,N
1691675115.5,286046999.1,N
1691675135.3,286046999.6,N
1691675155.2,286046999.0,N
1691675175.0,286046999.0,N
1691675175.9,286046999.0,N
1691675195.7,286046999.3,N
1691675215.6,286046998.1,N
1691675235.4,286046999.3,N
1691675255.3,286046998.4,N
1691675275.1,286046998.3,N
1691675276.0,286046998.3,N
1691675295.8,286047000.6,N
1691675315.7,286047000.8,N
1691675335.5,286047000.2,N
1691675355.4,286047001.2,N
1691675375.2,286046998.7,N
1691675395.0,286046998.3,N
1691675395.9,286046998.3,N
1691675415.8,286046996.7,N
1691675435.6,286046999.5,N
1691675455.4,286046996.7,N
1691675475.3,286046999.2,N
1691675495.1,286046998.7,N
1691675515.9,286046996.5,Y
1691675535.7,286046999.0,P
1691675555.5,286047001.1,P
1691675575.4,286046998.8,N
1691675595.2,286047000.7,N
1691675615.0,286047000.6,N
1691675615.9,286047000.6,N
1691675635.8,286047000.0,N
1691675655.6,286047001.0,N
1691675675.5,286047000.3,N
1691675695.3,286047001.8,N
1691675715.1,286047004.2,Y
1691675735.9,286047000.2,P
1691675755.7,286047002.4,P
1691675775.6,286047002.0,N
1691675795.4,286047002.0,N
1691675815.2,286047001.4,N
1691675835.1,286047001.9,N
1691675836.0,286047001.9,N
1691675855.8,286047002.3,N
1691675875.6,286047002.7,Y
1691675895.5,286047000.7,P
1691675915.3,286046998.4,P
1691675935.2,286046998.7,N
1691675955.9,286046999.2,N
1691675975.7,286046996.5,N
1691675995.6,286046997.5,N
